MST,Max TemperatureF,Mean TemperatureF,Min TemperatureF,Max Dew PointF,MeanDew PointF,Min DewpointF,Max Humidity, Mean Humidity, Min Humidity, Max Sea Level PressureIn, Mean Sea Level PressureIn, Min Sea Level PressureIn, Max VisibilityMiles, Mean VisibilityMiles, Min VisibilityMiles, Max Wind SpeedMPH, Mean Wind SpeedMPH, Max Gust SpeedMPH,PrecipitationIn, CloudCover, Events, WindDirDegrees
2013-2-1,46,35,24,18,17,13,71,50,27,30.20,30.16,30.07,10,10,10,33,21,44,0.00,0,,298
2013-2-2,51,38,25,20,17,13,72,47,22,30.34,30.29,30.20,10,10,10,21,12,,0.00,0,,299
2013-2-3,51,40,28,24,17,12,61,45,22,30.25,30.07,29.88,10,10,10,21,13,29,0.00,2,,285
2013-2-4,52,40,28,23,18,4,75,45,24,30.05,29.96,29.88,10,10,10,26,16,33,0.00,0,,301
2013-2-5,55,40,26,20,13,8,72,38,15,30.04,29.97,29.88,10,10,10,23,14,32,0.00,0,,218
2013-2-6,53,40,28,36,19,11,76,44,26,29.92,29.86,29.78,10,10,10,24,14,31,0.00,0,,281
2013-2-7,48,37,26,23,18,15,71,51,27,30.19,30.07,29.93,10,10,10,13,7,20,0.00,1,,199
2013-2-8,45,35,25,24,20,15,72,58,40,30.15,30.00,29.80,10,10,10,22,12,31,0.00,0,,139
2013-2-9,44,32,21,24,12,0,70,46,20,29.75,29.65,29.53,10,9,2,46,24,59,0.00,5,Snow,237
2013-2-10,36,28,19,13,9,5,71,51,31,29.99,29.89,29.78,10,10,10,26,16,40,0.00,3,,266
2013-2-11,36,26,15,18,11,5,81,56,36,30.08,29.98,29.92,10,10,10,15,9,22,0.00,3,,67
2013-2-12,35,26,18,22,13,0,93,65,23,30.17,29.98,29.87,10,9,2,24,12,33,0.00,4,Snow,327
2013-2-13,42,30,17,13,9,5,68,46,24,30.12,30.05,29.95,10,10,10,32,22,41,0.01,0,,302
2013-2-14,46,34,21,21,15,8,78,53,22,30.21,30.08,29.97,10,10,10,30,16,37,0.00,1,,320
2013-2-15,42,33,23,23,17,1,93,68,20,30.37,30.25,30.19,10,6,0,23,12,37,0.00,5,Fog,229
2013-2-16,50,34,19,9,4,-1,48,29,15,30.37,30.24,30.07,10,10,10,30,18,37,0.00,0,,302
2013-2-17,57,40,23,6,-1,-13,42,21,6,30.02,29.83,29.65,10,10,10,26,19,33,0.00,0,,271
2013-2-18,45,36,26,12,-6,-23,49,22,5,30.09,29.90,29.66,10,10,10,39,22,47,0.00,0,,290
2013-2-19,50,36,23,31,11,-12,82,41,15,30.09,29.91,29.70,10,10,10,18,9,30,0.00,2,,165
2013-2-20,44,35,26,32,26,11,93,76,27,29.78,29.61,29.44,10,8,0,39,18,46,0.00,6,Fog-Snow,228
2013-2-21,36,28,21,25,22,17,93,80,55,29.88,29.61,29.42,10,7,0,31,15,44,0.08,5,Fog-Snow,286
2013-2-22,39,28,18,21,16,9,86,67,33,29.96,29.90,29.85,10,10,9,25,12,34,0.00,4,Snow,280
2013-2-23,45,30,16,10,7,4,71,42,19,29.98,29.84,29.69,10,10,10,34,23,43,0.00,0,,274
2013-2-24,37,29,21,25,19,12,93,76,44,29.81,29.67,29.55,10,4,0,32,15,48,0.55,5,Fog-Snow,325
2013-2-25,30,22,14,18,11,4,93,66,44,30.05,29.91,29.79,10,6,0,30,15,37,0.11,2,Fog-Snow,305
2013-2-26,34,23,12,17,9,2,65,53,42,30.08,29.88,29.74,10,7,1,36,22,44,0.01,1,Snow,299
2013-2-27,30,18,7,14,6,0,77,60,50,30.37,30.29,30.12,10,10,10,14,7,,0.00,0,,240
2013-2-28,36,23,10,17,8,0,64,51,38,30.40,30.30,30.23,10,10,10,29,12,34,0.00,0,,298